Location: Hylvaty SDH
(49.9612°N, 16.4057°E)
Time: 12:23:27
(UTC+01:00)

A-11 Canister half - Pass Details

Date: 04 October 2020
Orbit: 1526 x 1683 km, 47.3° (Epoch: 28 October)

Event Time Altitude Azimuth Distance (km) Brightness Sun altitude
Rises 22:51:06 0° 241° (WSW) 4,670 11.6 -39.1°
Reaches altitude 10° 22:54:09 10° 239° (WSW) 3,689 11.0 -39.4°
Enters shadow 22:56:22 20° 236° (SW) 3,005 10.5 -39.6°
Maximum altitude 23:03:17 65° 161° (SSE) 1,668 - -40.2°
Drops below altitude 10° 23:12:35 10° 82° (E) 3,757 - -41.0°
Sets 23:15:43 0° 80° (E) 4,762 - -41.2°
